Tracking 30258 objects as of 19-Feb-2025
HD Live streaming from Space Station
objects crossing your sky now

COSMOS 375 DEB

Track COSMOS 375 DEB now!
10-day predictions


NORAD ID: 4724
Int'l Code: 1970-091V
Perigee: 482.2 km
Apogee: 1,181.2 km
Inclination: 62.8 °
Period: 101.4 minutes
Semi major axis: 7202 km
RCS: 0.2791 m2 (medium)
Launch date: October 30, 1970
Source: Commonwealth of Independent States (former USSR) (CIS)
Launch site: TYURATAM MISSILE AND SPACE COMPLEX (TTMTR)

Note: This is SATELLITE DEBRIS
Your satellite tracking list
Your tracking list is empty




NASA's NSSDC Master Catalog

Two Line Element Set (TLE):
1 04724U 70091V   25049.64712172  .00012061  00000-0  16893-2 0  9993
2 04724  62.7758 158.4709 0485280  94.8632 270.7994 14.20233422690238
Source of the keplerian elements: AFSPC